SCP
0 0 0 0 0 0 0 0 0 0 0 0 0 0 0 0 0 0 0 0 0 0 0 0 0 0 0 0 0 0 0 0 0 0 0 0 0 0 0 0 0 0 0 0 0 0 0
0 0 0 0 0 0 0 0 0 0 0 0 0 0 0 0 0 0 0 0 0 0 0 0 0 0 0 0 0 0 0 0 0 0 0 0 0 0 0 0 0 0 0 0 0 0 0
0 0 0 0 0 0 0 0 0 0 0 0 0 0 0 0 0 0 0 0 0 0 0 0 0 0 0 0 0 0 0 0 0 0 0 0 0 0 0 0 0 0 0 0 0 0 0
0 0 0 0 0 0 0 0 0 0 0 0 0 0 0 0 0 0 0 0 0 0 0 0 0 0 0 0 0 0 0 0 0 0 0 0 0 0 0 0 0 0 0 0 0 0 0
0 0 0 0 0 0 0 0 0 0 0 0 0 0 0 0 0 0 0 0 0 0 0 0 0 0 0 0 0 0 0 0 0 0 0 0 0 0 0 0 0 0 0 0 0 0 0
0 0 0 0 0 0 0 0 0 0 0 0 0 0 0 0 0 0 0 0 0 0 0 0 0 0 0 0 0 0 0 0 0 0 0 0 0 0 0 0 0 0 0 0 0 0 0
0 0 0 0 0 0 0 0 0 0 0 0 0 0 0 0 0 0 0 1 0 0 0 0 0 0 0 0 0 0 0 0 0 0 0 0 0 0 0 0 0 0 0 0 0 0 0
0 0 0 0 0 0 0 0 0 0 0 0 0 0 0 0 0 0 0 0 0 0 0 0 0 0 0 0 0 0 0 0 0 0 0 0 0 0 0 0 0 0 0 0 0 0 0
0 0 0 0 0 0 0 0 0 0 0 0 0 0 0 0 0 0 0 0 0 0 0 0 0 0 0 0 0 0 0 0 0 0 0 0 0 0 0 0 0 0 0 0 0 0 0
0 0 0 0 0 0 0 0 0 0 0 0 0 0 0 0 0 0 0 0 0 0 0 0 0 0 0 0 0 0 0 0 0 0 0 0 0 0 0 0 0 0 0 0 0 0 0
0 0 0 -0 0 0 0 0 0 0 0 0 0 0 0 0 0 0 0 0 0 0 0 0 0 0 0 0 0 0 0 0 0 0 0 0 0 0 0 0 0 0 0 0 0 0 0
0 0 0 0 0 0 0 0 0 0 0 0 0 0 0 1 0 0 0 0 0 0 0 0 0 0 0 0 0 0 0 0 0 0 0 0 0 0 0 0 0 0 0 0 0 0 0
0 0 0 0 0 0 0 0 0 0 0 0 0 0 0 0 0 0 0 0 0 0 0 0 0 0 0 0 0 0 0 0 0 0 -0 0 0 0 0 0 0 0 0 0 0 0 0
-0 -0 0 0 0 0 0 0 -0 -0 0 0 0 0 0 0 0 0 1 0 0 0 0 0 0 0 0 0 0 0 0 0 0 0 0 0 0 0 0 0 0 0 0 0 0 0 0
-0 -0 -0 0 0 0 0 0 0 -0 0 0 0 0 0 0 0 0 0 0 0 0 0 0 0 0 0 0 0 0 0 0 0 0 0 0 0 0 0 0 0 0 0 0 0 0 0
0 0 0 0 0 0 0 -0 -0 0 0 0 0 0 0 0 0 0 0 0 0 0 0 0 0 0 0 0 0 0 0 0 0 0 0 0 0 0 0 0 0 0 0 0 0 0 0
0 0 0 0 0 0 0 0 0 0 -0 0 0 0 0 0 0 0 0 0 0 0 0 0 0 0 0 0 0 0 0 0 0 0 0 0 0 0 0 0 0 0 0 0 0 0 0
0 -0 -0 -0 -0 -0 -0 -0 0 0 0 0 0 0 0 0 0 0 0 -0 0 0 0 0 0 0 0 0 0 0 0 0 0 0 0 0 0 0 0 0 0 0 0 0 0 0 0
0 0 0 0 0 0 0 0 -0 -0 -0 0 0 0 0 0 0 0 0 0 0 0 0 0 0 0 0 0 0 0 0 0 0 0 0 0 0 0 0 0 0 0 0 0 0 0 0
-0 0 0 0 0 0 0 0 -0 0 0 0 0 0 0 0 0 0 0 0 0 0 0 0 0 0 0 0 0 0 0 0 0 0 0 0 0 0 0 0 0 0 -0 -0 0 0 0
-0 -0 0 0 0 0 0 0 0 -0 0 0 0 0 0 0 0 0 0 0 0 0 0 0 0 0 0 0 0 0 0 0 0 0 0 0 0 0 0 0 0 0 0 0 0 0 0
-0 -0 0 0 0 0 0 0 -0 -0 0 0 0 0 0 0 0 0 0 0 0 0 0 0 0 0 0 0 0 0 0 0 0 0 0 0 0 0 0 0 0 0 0 -0 -0 0 0
-0 -0 -0 -0 0 0 0 0 -0 0 0 0 0 0 0 0 0 0 0 0 0 0 0 0 0 0 0 0 0 0 0 0 0 0 0 0 0 0 0 0 0 0 0 0 0 0 0
0 -0 0 -0 0 0 0 0 -0 0 0 0 0 0 0 0 0 0 0 0 0 0 0 0 0 0 0 0 0 0 0 0 0 0 0 0 0 0 0 0 0 0 0 0 0 0 0
0 -0 -0 0 0 0 0 -0 0 0 0 0 0 0 0 0 0 0 0 0 0 0 0 0 0 0 0 0 0 0 0 0 0 0 0 0 0 0 0 0 0 0 0 0 0 0 0
-0 0 0 0 -0 -0 0 0 0 0 0 0 0 0 0 0 0 0 0 0 0 0 0 0 0 0 0 0 0 0 0 0 0 0 0 0 0 0 0 0 0 0 0 0 0 0 0
0 -0 0 0 0 -0 0 0 0 0 0 0 0 0 0 0 0 0 0 0 0 0 0 0 0 0 0 0 0 0 0 0 0 0 0 0 0 0 0 0 0 0 0 0 0 0 0
0 -0 -0 -0 0 0 0 0 0 0 0 0 0 0 0 0 0 0 0 0 0 0 0 0 0 0 0 0 0 0 0 0 0 0 0 0 0 0 0 0 0 0 0 0 0 0 0
-0 0 0 0 0 0 0 -0 -0 0 0 0 0 0 0 0 0 0 0 0 0 0 0 0 0 0 0 0 0 0 0 0 0 0 0 0 0 0 0 0 0 0 0 0 0 0 0
Wind_Speed_500mb
82 85 83 75 69 77 82 80 72 80 79 73 69 64 66 66 58 55 55 51 47 46 40 50 41 37 36 36 42 12 3 29 38 42 40 31 22 13 6 8 14 9 13 27 24 10 6
73 86 82 83 80 74 71 79 83 86 76 81 72 68 62 66 64 59 55 53 47 47 39 41 46 41 43 37 48 37 46 6 23 37 39 34 17 18 9 8 2 11 24 29 33 26 12
90 93 85 76 79 82 75 72 71 72 80 81 77 69 68 61 65 61 56 54 50 44 44 35 46 46 52 53 6 27 47 38 25 17 37 35 35 16 5 7 18 14 7 9 15 10 9
77 81 72 84 78 71 79 78 75 74 71 69 77 69 68 64 62 59 61 53 50 44 42 35 41 45 37 42 40 28 31 45 35 27 33 35 28 28 6 7 10 4 1 7 6 19 19
70 72 75 69 68 66 71 68 72 72 74 70 67 70 66 68 61 65 57 53 48 43 38 40 36 37 27 36 47 37 36 38 44 35 36 33 35 12 7 6 1 6 8 12 12 19 13
65 59 62 46 58 59 67 67 72 70 72 73 75 69 67 63 65 59 59 54 45 40 36 34 29 20 37 37 39 49 39 36 36 40 32 24 14 7 6 11 26 17 8 3 5 13 20
54 55 59 57 57 63 65 61 72 72 71 74 77 78 73 68 62 60 53 45 34 26 55 44 34 25 7 52 39 41 57 47 35 38 21 23 11 31 32 26 7 9 7 6 3 7 19
53 59 57 62 65 65 71 70 65 70 73 78 76 77 77 75 68 61 59 63 55 21 21 62 31 66 25 28 25 45 53 44 30 30 27 12 37 35 7 17 18 10 9 11 11 5 5
53 53 54 55 65 69 71 71 63 64 67 72 78 76 76 77 72 60 68 84 58 37 16 40 60 37 47 33 31 42 59 46 25 29 31 32 26 27 27 19 28 24 36 25 15 5 3
55 56 55 62 59 62 59 74 65 63 73 71 74 75 75 70 61 72 78 80 78 41 15 13 41 26 32 29 12 29 62 42 16 32 22 29 40 28 24 31 28 35 29 21 18 9 8
57 53 50 51 51 61 64 70 69 71 60 70 72 71 74 78 73 80 94 74 77 45 20 37 29 27 39 36 26 37 46 47 27 21 14 22 27 33 31 45 36 22 22 28 14 11 1
65 62 58 63 60 60 55 62 65 66 58 62 73 71 71 73 78 91 84 71 73 21 16 28 37 35 30 40 14 21 33 28 7 7 15 22 21 35 35 20 44 12 17 14 8 11 14
73 70 67 68 65 61 66 61 69 69 64 66 70 74 75 79 94 82 83 70 28 31 11 15 32 44 59 29 32 14 23 26 13 10 16 27 33 6 31 19 33 14 18 10 11 11 11
65 69 66 66 65 62 65 67 69 65 58 64 68 72 73 81 81 85 74 29 39 38 11 3 30 53 45 39 32 14 24 24 21 9 5 14 15 27 19 20 22 36 23 10 11 9 10
68 67 68 67 69 68 68 68 67 71 74 68 72 74 72 85 82 82 73 37 34 12 31 30 37 51 23 30 21 25 29 31 19 33 14 12 10 7 5 12 27 27 24 11 10 3 4
77 81 84 81 76 73 72 70 66 71 58 65 80 71 83 82 80 80 35 38 16 22 28 36 22 41 45 47 17 41 35 20 17 22 13 10 5 6 22 2 4 19 20 11 7 13 11
68 79 91 95 92 85 78 70 68 63 68 73 71 37 51 81 77 53 21 23 6 53 44 37 26 28 30 47 39 45 35 10 31 28 20 20 7 3 9 11 30 12 20 14 11 7 14
55 62 82 102 94 91 79 70 68 67 79 79 43 11 43 67 23 9 21 17 11 30 55 25 15 7 29 52 35 30 13 13 39 46 22 20 7 9 10 12 8 16 11 14 17 17 7
44 55 74 104 102 93 84 77 69 72 87 84 37 19 34 79 18 15 13 14 22 25 25 16 16 16 25 33 21 12 11 3 56 33 38 21 11 5 4 6 16 9 6 11 6 6 8
41 40 56 105 102 91 84 81 74 72 98 76 27 11 14 52 28 22 27 27 12 42 24 10 8 28 33 38 9 19 13 5 58 40 39 35 10 10 20 8 9 7 22 31 11 2 9
23 43 49 90 93 92 88 76 81 89 104 72 18 11 14 12 18 12 18 34 17 14 9 31 15 39 45 18 9 14 11 9 12 36 20 13 13 7 5 15 9 12 10 19 17 17 5
15 43 68 77 88 92 88 91 89 105 103 43 4 3 17 8 22 31 9 33 42 9 12 7 24 42 39 36 20 34 20 11 11 10 17 12 7 10 3 7 2 5 11 17 30 27 28
49 52 74 85 90 97 102 99 101 99 90 30 18 8 19 11 9 27 23 10 30 40 7 11 47 37 22 16 39 41 33 21 23 19 12 14 9 7 8 2 10 6 32 24 7 9 24
65 64 73 98 100 110 109 99 102 90 64 27 39 11 11 5 4 3 27 39 22 8 21 26 40 24 22 83 79 61 62 48 35 22 8 11 10 6 5 7 1 16 7 26 29 9 12
67 86 89 110 107 122 111 92 94 77 37 28 19 9 13 7 8 10 27 27 29 49 17 14 13 47 64 69 22 14 9 11 11 14 18 7 9 5 8 5 11 18 5 11 11 3 21
105 92 85 96 98 95 95 93 71 53 19 16 12 22 17 14 6 3 18 40 37 20 12 27 41 37 42 6 9 9 8 10 7 4 8 9 9 9 4 10 15 10 9 11 10 4 23
81 82 82 85 96 100 93 73 55 37 19 14 16 28 18 20 21 11 8 24 20 24 17 12 12 7 11 5 7 6 3 7 15 21 11 8 5 11 7 5 12 13 19 4 12 4 14
65 66 73 80 83 75 67 53 45 22 19 14 19 33 22 23 40 20 17 17 28 20 22 28 13 5 6 8 7 6 7 10 8 8 14 13 12 7 6 4 13 26 7 6 5 20 17
49 50 49 53 60 60 54 43 28 23 24 20 32 31 61 39 34 49 40 30 26 25 38 21 4 11 14 9 4 7 6 4 11 7 6 4 11 11 10 7 14 41 43 25 21 17 16
Wind_Direction_500mb
247 249 247 241 241 238 238 236 238 239 241 239 239 237 235 232 230 231 233 231 228 225 226 221 223 224 217 219 227 104 132 208 215 227 227 221 219 217 220 267 283 213 240 255 270 287 270
257 244 242 243 240 237 239 237 239 241 239 239 237 235 234 231 229 227 230 231 228 223 221 219 213 219 219 232 227 235 245 228 222 216 218 214 218 214 277 268 175 309 280 256 277 273 249
261 254 238 235 237 238 237 236 235 235 238 237 238 236 231 230 227 226 225 227 227 222 220 218 210 218 224 230 234 231 229 236 245 233 211 203 211 197 86 314 308 279 282 310 270 265 226
269 261 257 226 232 237 237 235 232 232 231 229 232 232 231 229 225 224 223 222 223 219 215 215 207 215 233 240 223 229 217 215 221 214 207 209 207 206 186 311 306 304 130 243 219 252 264
267 262 259 219 222 233 235 233 232 230 228 228 228 226 226 225 224 220 221 219 217 215 207 210 207 206 241 239 230 213 212 206 201 205 205 209 207 179 180 135 272 226 224 234 285 256 264
273 259 254 240 224 228 234 228 234 228 229 229 229 228 224 223 220 219 217 215 212 206 199 197 206 184 233 216 222 218 214 212 194 201 187 183 171 142 186 163 230 213 207 339 321 352 317
261 261 250 245 233 230 226 229 229 230 228 231 232 231 229 223 219 215 208 200 203 184 194 188 187 197 329 215 207 214 212 206 192 185 193 177 189 218 205 200 213 130 131 197 267 324 339
256 250 250 241 234 236 224 223 225 229 228 228 228 227 228 227 219 214 209 202 203 195 185 207 218 218 203 207 194 211 201 192 195 205 192 188 222 222 113 186 183 208 187 234 303 268 1
255 251 250 242 238 230 231 228 221 226 225 223 223 224 224 225 220 215 212 212 199 169 166 207 205 216 215 201 206 204 195 200 193 200 198 210 230 173 187 198 208 216 225 220 240 11 196
252 251 245 243 236 225 223 222 225 223 224 222 220 218 218 216 214 213 216 209 204 197 191 173 196 228 205 186 242 205 205 193 214 210 194 219 223 180 186 197 183 223 216 211 201 162 232
253 252 248 248 231 222 224 218 215 221 222 218 216 216 214 208 205 206 213 204 198 182 235 164 175 183 181 175 142 195 204 203 208 190 190 203 193 200 198 204 179 225 156 189 168 178 258
247 247 244 241 233 224 228 216 220 220 224 222 215 214 211 206 208 219 209 202 194 217 212 172 153 167 151 193 196 145 175 202 132 199 233 273 297 195 205 183 179 143 137 166 169 215 217
245 240 237 235 227 227 223 219 221 222 223 223 215 212 208 203 206 202 202 191 207 199 146 150 167 165 176 172 187 147 175 187 174 188 200 217 245 287 164 153 183 202 153 181 206 205 229
240 239 233 230 227 224 222 220 218 221 222 213 212 209 208 211 209 201 194 208 225 193 165 230 165 175 180 152 195 154 154 194 180 147 123 205 192 197 177 196 190 194 201 160 198 200 235
239 236 234 230 227 228 225 226 225 224 219 216 204 205 211 208 203 201 196 208 216 170 156 166 155 172 173 178 154 174 196 199 178 188 193 186 233 281 240 194 157 182 209 215 104 50 61
235 233 231 228 225 226 225 223 224 218 220 192 188 199 209 204 200 197 204 230 227 135 149 150 152 179 184 179 143 181 180 190 164 166 137 174 311 339 208 252 263 191 158 193 185 183 219
239 241 235 226 225 220 222 220 216 211 191 185 183 182 206 196 197 191 221 223 154 185 167 162 163 175 192 174 181 181 185 179 173 162 153 155 188 117 62 213 223 211 197 205 171 166 206
249 248 233 221 218 218 217 210 202 193 183 177 169 183 187 193 196 175 204 157 208 183 175 213 157 110 173 182 178 171 168 169 159 153 184 180 175 202 190 200 268 329 201 239 193 186 236
258 247 235 211 211 211 209 207 201 193 178 169 166 174 192 186 201 188 203 186 187 171 181 187 166 172 167 164 172 133 156 9 163 160 165 156 189 149 212 142 175 192 288 334 161 65 196
260 243 207 196 199 202 201 197 197 190 183 166 156 170 167 182 205 166 168 179 175 162 167 203 155 128 127 154 60 150 145 95 171 168 161 156 173 201 225 154 135 174 203 202 281 67 165
263 217 187 188 191 194 192 192 186 181 177 165 165 198 186 153 160 168 155 173 172 140 164 187 148 152 138 139 101 136 118 116 132 162 149 162 201 187 133 133 143 145 157 194 196 196 182
312 210 189 184 183 187 189 183 179 172 176 174 159 213 87 109 134 168 146 171 158 101 128 175 143 150 155 159 172 163 139 150 157 174 158 171 220 160 273 128 184 156 218 199 203 228 233
40 156 169 171 166 170 169 171 169 170 172 170 197 142 112 96 149 161 175 172 156 137 134 162 148 142 126 111 109 110 119 114 129 152 156 143 127 94 235 263 140 349 223 219 221 203 216
70 110 140 155 157 160 164 160 161 159 165 165 167 167 99 87 102 110 154 155 166 113 119 124 118 108 124 119 102 87 71 68 64 40 62 121 102 79 141 34 10 240 302 206 215 244 336
82 105 125 143 151 152 161 158 157 159 143 170 146 146 99 107 101 56 133 123 95 94 73 69 74 132 139 113 94 73 14 46 7 45 15 88 113 96 146 181 299 299 264 145 156 123 6
80 105 119 132 140 148 154 153 153 162 178 172 101 120 112 118 38 189 131 130 130 115 65 104 112 134 135 76 82 120 159 152 164 32 29 50 63 119 119 158 206 253 293 234 131 211 16
83 87 98 118 130 135 138 140 145 161 131 133 122 146 122 104 34 127 114 126 124 102 117 101 120 63 38 78 82 122 156 165 156 167 155 122 129 168 189 185 282 250 280 315 114 196 43
89 107 117 123 132 136 145 146 153 130 90 115 113 153 147 93 55 93 118 82 122 127 150 162 106 350 47 71 109 179 118 204 105 169 171 160 151 182 129 141 255 5 332 171 81 69 54
89 98 119 135 145 149 159 170 162 132 60 53 98 118 123 109 104 89 90 99 108 119 135 151 129 144 152 103 99 102 92 123 154 197 189 170 178 172 165 179 78 56 87 75 81 81 29
Wind_Speed_850mb
82 85 83 75 69 77 82 80 72 80 79 73 69 64 66 66 58 55 55 51 47 46 40 50 41 37 36 36 42 12 3 29 38 42 40 31 22 13 6 8 14 9 13 27 24 10 6
73 86 82 83 80 74 71 79 83 86 76 81 72 68 62 66 64 59 55 53 47 47 39 41 46 41 43 37 48 37 46 6 23 37 39 34 17 18 9 8 2 11 24 29 33 26 12
90 93 85 76 79 82 75 72 71 72 80 81 77 69 68 61 65 61 56 54 50 44 44 35 46 46 52 53 6 27 47 38 25 17 37 35 35 16 5 7 18 14 7 9 15 10 9
77 81 72 84 78 71 79 78 75 74 71 69 77 69 68 64 62 59 61 53 50 44 42 35 41 45 37 42 40 28 31 45 35 27 33 35 28 28 6 7 10 4 1 7 6 19 19
70 72 75 69 68 66 71 68 72 72 74 70 67 70 66 68 61 65 57 53 48 43 38 40 36 37 27 36 47 37 36 38 44 35 36 33 35 12 7 6 1 6 8 12 12 19 13
65 59 62 46 58 59 67 67 72 70 72 73 75 69 67 63 65 59 59 54 45 40 36 34 29 20 37 37 39 49 39 36 36 40 32 24 14 7 6 11 26 17 8 3 5 13 20
54 55 59 57 57 63 65 61 72 72 71 74 77 78 73 68 62 60 53 45 34 26 55 44 34 25 7 52 39 41 57 47 35 38 21 23 11 31 32 26 7 9 7 6 3 7 19
53 59 57 62 65 65 71 70 65 70 73 78 76 77 77 75 68 61 59 63 55 21 21 62 31 66 25 28 25 45 53 44 30 30 27 12 37 35 7 17 18 10 9 11 11 5 5
53 53 54 55 65 69 71 71 63 64 67 72 78 76 76 77 72 60 68 84 58 37 16 40 60 37 47 33 31 42 59 46 25 29 31 32 26 27 27 19 28 24 36 25 15 5 3
55 56 55 62 59 62 59 74 65 63 73 71 74 75 75 70 61 72 78 80 78 41 15 13 41 26 32 29 12 29 62 42 16 32 22 29 40 28 24 31 28 35 29 21 18 9 8
57 53 50 51 51 61 64 70 69 71 60 70 72 71 74 78 73 80 94 74 77 45 20 37 29 27 39 36 26 37 46 47 27 21 14 22 27 33 31 45 36 22 22 28 14 11 1
65 62 58 63 60 60 55 62 65 66 58 62 73 71 71 73 78 91 84 71 73 21 16 28 37 35 30 40 14 21 33 28 7 7 15 22 21 35 35 20 44 12 17 14 8 11 14
73 70 67 68 65 61 66 61 69 69 64 66 70 74 75 79 94 82 83 70 28 31 11 15 32 44 59 29 32 14 23 26 13 10 16 27 33 6 31 19 33 14 18 10 11 11 11
65 69 66 66 65 62 65 67 69 65 58 64 68 72 73 81 81 85 74 29 39 38 11 3 30 53 45 39 32 14 24 24 21 9 5 14 15 27 19 20 22 36 23 10 11 9 10
68 67 68 67 69 68 68 68 67 71 74 68 72 74 72 85 82 82 73 37 34 12 31 30 37 51 23 30 21 25 29 31 19 33 14 12 10 7 5 12 27 27 24 11 10 3 4
77 81 84 81 76 73 72 70 66 71 58 65 80 71 83 82 80 80 35 38 16 22 28 36 22 41 45 47 17 41 35 20 17 22 13 10 5 6 22 2 4 19 20 11 7 13 11
68 79 91 95 92 85 78 70 68 63 68 73 71 37 51 81 77 53 21 23 6 53 44 37 26 28 30 47 39 45 35 10 31 28 20 20 7 3 9 11 30 12 20 14 11 7 14
55 62 82 102 94 91 79 70 68 67 79 79 43 11 43 67 23 9 21 17 11 30 55 25 15 7 29 52 35 30 13 13 39 46 22 20 7 9 10 12 8 16 11 14 17 17 7
44 55 74 104 102 93 84 77 69 72 87 84 37 19 34 79 18 15 13 14 22 25 25 16 16 16 25 33 21 12 11 3 56 33 38 21 11 5 4 6 16 9 6 11 6 6 8
41 40 56 105 102 91 84 81 74 72 98 76 27 11 14 52 28 22 27 27 12 42 24 10 8 28 33 38 9 19 13 5 58 40 39 35 10 10 20 8 9 7 22 31 11 2 9
23 43 49 90 93 92 88 76 81 89 104 72 18 11 14 12 18 12 18 34 17 14 9 31 15 39 45 18 9 14 11 9 12 36 20 13 13 7 5 15 9 12 10 19 17 17 5
15 43 68 77 88 92 88 91 89 105 103 43 4 3 17 8 22 31 9 33 42 9 12 7 24 42 39 36 20 34 20 11 11 10 17 12 7 10 3 7 2 5 11 17 30 27 28
49 52 74 85 90 97 102 99 101 99 90 30 18 8 19 11 9 27 23 10 30 40 7 11 47 37 22 16 39 41 33 21 23 19 12 14 9 7 8 2 10 6 32 24 7 9 24
65 64 73 98 100 110 109 99 102 90 64 27 39 11 11 5 4 3 27 39 22 8 21 26 40 24 22 83 79 61 62 48 35 22 8 11 10 6 5 7 1 16 7 26 29 9 12
67 86 89 110 107 122 111 92 94 77 37 28 19 9 13 7 8 10 27 27 29 49 17 14 13 47 64 69 22 14 9 11 11 14 18 7 9 5 8 5 11 18 5 11 11 3 21
105 92 85 96 98 95 95 93 71 53 19 16 12 22 17 14 6 3 18 40 37 20 12 27 41 37 42 6 9 9 8 10 7 4 8 9 9 9 4 10 15 10 9 11 10 4 23
81 82 82 85 96 100 93 73 55 37 19 14 16 28 18 20 21 11 8 24 20 24 17 12 12 7 11 5 7 6 3 7 15 21 11 8 5 11 7 5 12 13 19 4 12 4 14
65 66 73 80 83 75 67 53 45 22 19 14 19 33 22 23 40 20 17 17 28 20 22 28 13 5 6 8 7 6 7 10 8 8 14 13 12 7 6 4 13 26 7 6 5 20 17
49 50 49 53 60 60 54 43 28 23 24 20 32 31 61 39 34 49 40 30 26 25 38 21 4 11 14 9 4 7 6 4 11 7 6 4 11 11 10 7 14 41 43 25 21 17 16
Wind_Direction_850mb
247 249 247 241 241 238 238 236 238 239 241 239 239 237 235 232 230 231 233 231 228 225 226 221 223 224 217 219 227 104 132 208 215 227 227 221 219 217 220 267 283 213 240 255 270 287 270
257 244 242 243 240 237 239 237 239 241 239 239 237 235 234 231 229 227 230 231 228 223 221 219 213 219 219 232 227 235 245 228 222 216 218 214 218 214 277 268 175 309 280 256 277 273 249
261 254 238 235 237 238 237 236 235 235 238 237 238 236 231 230 227 226 225 227 227 222 220 218 210 218 224 230 234 231 229 236 245 233 211 203 211 197 86 314 308 279 282 310 270 265 226
269 261 257 226 232 237 237 235 232 232 231 229 232 232 231 229 225 224 223 222 223 219 215 215 207 215 233 240 223 229 217 215 221 214 207 209 207 206 186 311 306 304 130 243 219 252 264
267 262 259 219 222 233 235 233 232 230 228 228 228 226 226 225 224 220 221 219 217 215 207 210 207 206 241 239 230 213 212 206 201 205 205 209 207 179 180 135 272 226 224 234 285 256 264
273 259 254 240 224 228 234 228 234 228 229 229 229 228 224 223 220 219 217 215 212 206 199 197 206 184 233 216 222 218 214 212 194 201 187 183 171 142 186 163 230 213 207 339 321 352 317
261 261 250 245 233 230 226 229 229 230 228 231 232 231 229 223 219 215 208 200 203 184 194 188 187 197 329 215 207 214 212 206 192 185 193 177 189 218 205 200 213 130 131 197 267 324 339
256 250 250 241 234 236 224 223 225 229 228 228 228 227 228 227 219 214 209 202 203 195 185 207 218 218 203 207 194 211 201 192 195 205 192 188 222 222 113 186 183 208 187 234 303 268 1
255 251 250 242 238 230 231 228 221 226 225 223 223 224 224 225 220 215 212 212 199 169 166 207 205 216 215 201 206 204 195 200 193 200 198 210 230 173 187 198 208 216 225 220 240 11 196
252 251 245 243 236 225 223 222 225 223 224 222 220 218 218 216 214 213 216 209 204 197 191 173 196 228 205 186 242 205 205 193 214 210 194 219 223 180 186 197 183 223 216 211 201 162 232
253 252 248 248 231 222 224 218 215 221 222 218 216 216 214 208 205 206 213 204 198 182 235 164 175 183 181 175 142 195 204 203 208 190 190 203 193 200 198 204 179 225 156 189 168 178 258
247 247 244 241 233 224 228 216 220 220 224 222 215 214 211 206 208 219 209 202 194 217 212 172 153 167 151 193 196 145 175 202 132 199 233 273 297 195 205 183 179 143 137 166 169 215 217
245 240 237 235 227 227 223 219 221 222 223 223 215 212 208 203 206 202 202 191 207 199 146 150 167 165 176 172 187 147 175 187 174 188 200 217 245 287 164 153 183 202 153 181 206 205 229
240 239 233 230 227 224 222 220 218 221 222 213 212 209 208 211 209 201 194 208 225 193 165 230 165 175 180 152 195 154 154 194 180 147 123 205 192 197 177 196 190 194 201 160 198 200 235
239 236 234 230 227 228 225 226 225 224 219 216 204 205 211 208 203 201 196 208 216 170 156 166 155 172 173 178 154 174 196 199 178 188 193 186 233 281 240 194 157 182 209 215 104 50 61
235 233 231 228 225 226 225 223 224 218 220 192 188 199 209 204 200 197 204 230 227 135 149 150 152 179 184 179 143 181 180 190 164 166 137 174 311 339 208 252 263 191 158 193 185 183 219
239 241 235 226 225 220 222 220 216 211 191 185 183 182 206 196 197 191 221 223 154 185 167 162 163 175 192 174 181 181 185 179 173 162 153 155 188 117 62 213 223 211 197 205 171 166 206
249 248 233 221 218 218 217 210 202 193 183 177 169 183 187 193 196 175 204 157 208 183 175 213 157 110 173 182 178 171 168 169 159 153 184 180 175 202 190 200 268 329 201 239 193 186 236
258 247 235 211 211 211 209 207 201 193 178 169 166 174 192 186 201 188 203 186 187 171 181 187 166 172 167 164 172 133 156 9 163 160 165 156 189 149 212 142 175 192 288 334 161 65 196
260 243 207 196 199 202 201 197 197 190 183 166 156 170 167 182 205 166 168 179 175 162 167 203 155 128 127 154 60 150 145 95 171 168 161 156 173 201 225 154 135 174 203 202 281 67 165
263 217 187 188 191 194 192 192 186 181 177 165 165 198 186 153 160 168 155 173 172 140 164 187 148 152 138 139 101 136 118 116 132 162 149 162 201 187 133 133 143 145 157 194 196 196 182
312 210 189 184 183 187 189 183 179 172 176 174 159 213 87 109 134 168 146 171 158 101 128 175 143 150 155 159 172 163 139 150 157 174 158 171 220 160 273 128 184 156 218 199 203 228 233
40 156 169 171 166 170 169 171 169 170 172 170 197 142 112 96 149 161 175 172 156 137 134 162 148 142 126 111 109 110 119 114 129 152 156 143 127 94 235 263 140 349 223 219 221 203 216
70 110 140 155 157 160 164 160 161 159 165 165 167 167 99 87 102 110 154 155 166 113 119 124 118 108 124 119 102 87 71 68 64 40 62 121 102 79 141 34 10 240 302 206 215 244 336
82 105 125 143 151 152 161 158 157 159 143 170 146 146 99 107 101 56 133 123 95 94 73 69 74 132 139 113 94 73 14 46 7 45 15 88 113 96 146 181 299 299 264 145 156 123 6
80 105 119 132 140 148 154 153 153 162 178 172 101 120 112 118 38 189 131 130 130 115 65 104 112 134 135 76 82 120 159 152 164 32 29 50 63 119 119 158 206 253 293 234 131 211 16
83 87 98 118 130 135 138 140 145 161 131 133 122 146 122 104 34 127 114 126 124 102 117 101 120 63 38 78 82 122 156 165 156 167 155 122 129 168 189 185 282 250 280 315 114 196 43
89 107 117 123 132 136 145 146 153 130 90 115 113 153 147 93 55 93 118 82 122 127 150 162 106 350 47 71 109 179 118 204 105 169 171 160 151 182 129 141 255 5 332 171 81 69 54
89 98 119 135 145 149 159 170 162 132 60 53 98 118 123 109 104 89 90 99 108 119 135 151 129 144 152 103 99 102 92 123 154 197 189 170 178 172 165 179 78 56 87 75 81 81 29